This demonstration page uses our WeatherBlox Daily Observations layout. Learn more.

41.55636, -103.73856

Hourly Observations for April 8, 2019

Temp ( °F °C ) Dew Point ( °F °C ) Humidity (%) Winds ( mph kmh ) Pressure ( in mb ) Visibility ( mi km ) Precip ( " mm )
12:53 am 00:53 Clear 54 12.2 35 1.7 49 49 W 12 19 29.91 1013 10 16.09344 0 0
1:53 am 01:53 Clear 54 12.2 34 1.1 47 47 W 15 24 29.91 1013 10 16.09344 0 0
2:53 am 02:53 Clear 54 12.2 34 1.1 47 47 W 15 24 29.88 1012 10 16.09344 0 0
3:53 am 03:53 Clear 50 10 34 1.1 54 54 W 9 15 29.91 1013 10 16.09344 0 0
4:53 am 04:53 Clear 48 8.9 34 1.1 58 58 W 8 13 29.91 1013 10 16.09344 0 0
5:53 am 05:53 Clear 44 6.7 33 0.6 65 65 SW 5 7 29.97 1015 10 16.09344 0 0
6:53 am 06:53 Sunny 43 6.1 34 1.1 71 71 WNW 7 11 29.97 1015 10 16.09344 0 0
7:53 am 07:53 Sunny 54 12.2 36 2.2 51 51 WNW 10 17 29.97 1015 10 16.09344 0 0
8:53 am 08:53 Sunny 60 15.6 37 2.8 42 42 NW 17 28 29.97 1015 10 16.09344 0 0
9:53 am 09:53 Sunny 64 17.8 35 1.7 34 34 NW 14 22 29.97 1015 10 16.09344 0 0
10:53 am 10:53 Sunny 65 18.3 36 2.2 34 34 NW 15 24 29.97 1015 10 16.09344 0 0
11:53 am 11:53 Sunny 69 20.6 36 2.2 30 30 WNW 10 17 29.94 1014 10 16.09344 0 0
12:53 pm 12:53 Sunny 71 21.7 34 1.1 26 26 W 9 15 29.91 1013 10 16.09344 0 0
1:53 pm 13:53 Mostly Cloudy 75 23.9 33 0.6 22 22 WNW 8 13 29.91 1013 10 16.09344 0 0
2:53 pm 14:53 Mostly Sunny 73 22.8 35 1.7 25 25 NW 13 20 29.88 1012 10 16.09344 0 0
3:53 pm 15:53 Partly Cloudy 71 21.7 36 2.2 28 28 WNW 12 19 29.88 1012 10 16.09344 0 0
4:53 pm 16:53 Mostly Cloudy 72 22.2 36 2.2 27 27 NW 8 13 29.88 1012 10 16.09344 0 0
5:53 pm 17:53 Sunny 70 21.1 37 2.8 30 30 N 6 9 29.91 1013 10 16.09344 0 0
6:53 pm 18:53 Mostly Sunny 64 17.8 38 3.3 38 38 ENE 12 19 29.94 1014 10 16.09344 0 0
7:53 pm 19:53 Cloudy 60 15.6 41 5 50 50 ENE 8 13 29.94 1014 10 16.09344 0 0
8:53 pm 20:53 Mostly Clear 56 13.3 40 4.4 55 55 ENE 8 13 29.94 1014 10 16.09344 0 0
9:53 pm 21:53 Clear 55 12.8 40 4.4 57 57 E 5 7 29.94 1014 10 16.09344 0 0
10:53 pm 22:53 Clear 51 10.6 37 2.8 59 59 ESE 8 13 29.94 1014 10 16.09344 0 0
11:53 pm 23:53 Clear 49 9.4 36 2.2 61 61 ESE 6 9 29.91 1013 10 16.09344 0 0

Powered by AerisWeather